EZS548Q LFSB-LFKJ

Flight info

Callsign EZS548Q
Flight time N/A
Altitude 33000
Route ELBEG Y715 AMRUP N491 TRA DCT RIPUS DCT GERSA DCT SOSON DCT ODINA DCT EVANO DCT KEMMI DCT IXITO DCT UNITA DCT ERTEV/N0426F230 DCT TORTU
Aircraft A320/M-SDE3FGHIRWY/LB1

Departure

Time N/A
Airport EuroAirport Basel–Mulhouse–Freiburg (LFSB)

Arrival

Time 2026-04-08 15:04
Airport Ajaccio Napoléon Bonaparte airport (LFKJ)
Time Latitude Longitude Altitude Speed Heading
2026-04-08 14:36 43.92880 9.00411 33190 ft 451 kts 169°
2026-04-08 14:36 43.89824 9.00944 33187 ft 438 kts 179°
2026-04-08 14:37 43.83823 9.00154 33183 ft 432 kts 190°
2026-04-08 14:37 43.77928 8.98870 33188 ft 431 kts 190°
2026-04-08 14:38 43.72104 8.97614 33191 ft 413 kts 190°
2026-04-08 14:38 43.66462 8.96394 33188 ft 408 kts 189°
2026-04-08 14:39 43.60802 8.95803 33009 ft 410 kts 180°
2026-04-08 14:39 43.57956 8.95801 32670 ft 409 kts 180°
2026-04-08 14:39 43.55102 8.95802 32328 ft 410 kts 180°
2026-04-08 14:39 43.52249 8.95807 31991 ft 411 kts 180°
2026-04-08 14:40 43.49388 8.95811 31662 ft 412 kts 180°
2026-04-08 14:40 43.46521 8.95814 31336 ft 412 kts 180°
2026-04-08 14:40 43.43650 8.95712 31008 ft 413 kts 189°
2026-04-08 14:40 43.40836 8.94937 30698 ft 413 kts 191°
2026-04-08 14:41 43.37986 8.94314 30283 ft 416 kts 188°
2026-04-08 14:41 43.35082 8.93694 29136 ft 428 kts 190°
2026-04-08 14:41 43.32181 8.92877 28569 ft 424 kts 193°
2026-04-08 14:41 43.29269 8.91825 27593 ft 442 kts 197°
2026-04-08 14:42 43.26279 8.90534 26855 ft 459 kts 198°
2026-04-08 14:42 43.23210 8.89107 25145 ft 474 kts 199°
2026-04-08 14:42 43.20030 8.87584 23297 ft 493 kts 199°
2026-04-08 14:42 43.16785 8.86040 22208 ft 489 kts 199°
2026-04-08 14:43 43.13630 8.84572 20931 ft 473 kts 198°
2026-04-08 14:43 43.10538 8.83179 19535 ft 463 kts 198°
2026-04-08 14:43 43.07498 8.81841 18194 ft 455 kts 198°
2026-04-08 14:43 43.04511 8.80544 16811 ft 446 kts 198°
2026-04-08 14:44 43.01586 8.79278 15877 ft 436 kts 198°
2026-04-08 14:44 42.98709 8.78030 15496 ft 432 kts 198°
2026-04-08 14:44 42.95876 8.76792 15301 ft 431 kts 198°
2026-04-08 14:44 42.93018 8.75534 15168 ft 432 kts 198°
2026-04-08 14:45 42.90161 8.74275 14958 ft 430 kts 198°
2026-04-08 14:45 42.87324 8.73026 14713 ft 427 kts 198°
2026-04-08 14:45 42.84507 8.71788 14482 ft 425 kts 198°
2026-04-08 14:45 42.81699 8.70556 14244 ft 423 kts 198°
2026-04-08 14:46 42.78903 8.69331 14007 ft 421 kts 198°
2026-04-08 14:46 42.76108 8.68109 13743 ft 420 kts 198°
2026-04-08 14:46 42.73334 8.66896 13480 ft 418 kts 198°
2026-04-08 14:46 42.70566 8.65686 13219 ft 417 kts 198°
2026-04-08 14:47 42.67810 8.64486 12957 ft 415 kts 198°
2026-04-08 14:47 42.65069 8.63295 12697 ft 413 kts 198°
2026-04-08 14:47 42.62337 8.62105 12447 ft 412 kts 198°
2026-04-08 14:47 42.59650 8.60934 12199 ft 410 kts 198°
2026-04-08 14:48 42.56935 8.59752 11947 ft 409 kts 198°
2026-04-08 14:48 42.54232 8.58578 11698 ft 407 kts 198°
2026-04-08 14:48 42.51537 8.57409 11452 ft 406 kts 198°
2026-04-08 14:48 42.48850 8.56246 11208 ft 405 kts 198°
2026-04-08 14:49 42.46172 8.55088 10965 ft 403 kts 198°
2026-04-08 14:49 42.43504 8.53932 10726 ft 402 kts 198°
2026-04-08 14:49 42.40853 8.52786 10488 ft 395 kts 198°
2026-04-08 14:49 42.38283 8.51678 10250 ft 379 kts 198°
2026-04-08 14:50 42.35819 8.50618 10074 ft 363 kts 198°
2026-04-08 14:50 42.33447 8.49598 9945 ft 354 kts 198°
2026-04-08 14:50 42.31107 8.48591 9812 ft 352 kts 198°
2026-04-08 14:50 42.28780 8.47590 9685 ft 351 kts 198°
2026-04-08 14:51 42.26481 8.46602 9549 ft 337 kts 198°
2026-04-08 14:51 42.24332 8.45680 9416 ft 310 kts 198°
2026-04-08 14:51 42.22344 8.44912 9248 ft 285 kts 195°
2026-04-08 14:51 42.20509 8.44261 8954 ft 263 kts 195°
2026-04-08 14:52 42.18788 8.43663 8698 ft 257 kts 195°
2026-04-08 14:52 42.17056 8.43097 8491 ft 255 kts 194°
2026-04-08 14:52 42.15324 8.42573 8300 ft 254 kts 193°
2026-04-08 14:52 42.13583 8.42150 8090 ft 255 kts 186°
2026-04-08 14:53 42.11813 8.42073 7942 ft 261 kts 180°
2026-04-08 14:53 42.09904 8.42152 7821 ft 283 kts 178°
2026-04-08 14:53 42.07931 8.42262 7697 ft 285 kts 178°
2026-04-08 14:53 42.05949 8.42355 7574 ft 285 kts 179°
2026-04-08 14:54 42.03970 8.42422 7448 ft 284 kts 179°
2026-04-08 14:54 42.01995 8.42463 7330 ft 284 kts 180°
2026-04-08 14:54 42.00024 8.42488 7209 ft 283 kts 180°
2026-04-08 14:54 41.98064 8.42502 6959 ft 280 kts 180°
2026-04-08 14:55 41.96139 8.42512 6751 ft 269 kts 180°
2026-04-08 14:55 41.94344 8.42512 6574 ft 249 kts 180°
2026-04-08 14:55 41.92680 8.42864 6256 ft 237 kts 157°
2026-04-08 14:55 41.91360 8.44017 6126 ft 219 kts 134°
2026-04-08 14:56 41.90536 8.45616 5964 ft 204 kts 113°
2026-04-08 14:56 41.90210 8.47433 5668 ft 200 kts 92°
2026-04-08 14:56 41.90380 8.49266 5346 ft 198 kts 71°
2026-04-08 14:56 41.90750 8.50377 5127 ft 197 kts 57°
2026-04-08 14:57 41.91640 8.51758 4799 ft 195 kts 38°
2026-04-08 14:57 41.92852 8.52663 4285 ft 203 kts 19°
2026-04-08 14:57 41.94169 8.53348 3916 ft 203 kts 20°
2026-04-08 14:57 41.95480 8.54044 3558 ft 202 kts 20°
2026-04-08 14:58 41.96745 8.54863 3202 ft 202 kts 31°
2026-04-08 14:58 41.97822 8.56059 3015 ft 202 kts 45°
2026-04-08 14:58 41.98669 8.57574 3012 ft 204 kts 59°
2026-04-08 14:58 41.99235 8.59323 3014 ft 205 kts 71°
2026-04-08 14:59 41.99682 8.61141 3013 ft 205 kts 71°
2026-04-08 14:59 42.00129 8.62961 3018 ft 205 kts 71°
2026-04-08 14:59 42.00560 8.64786 3013 ft 205 kts 76°
2026-04-08 14:59 42.00713 8.66692 3008 ft 206 kts 92°
2026-04-08 15:00 42.00527 8.68590 3014 ft 205 kts 100°
2026-04-08 15:00 42.00280 8.70452 3003 ft 200 kts 99°
2026-04-08 15:00 42.00048 8.72232 3004 ft 189 kts 101°
2026-04-08 15:00 41.99820 8.73981 2922 ft 192 kts 101°
2026-04-08 15:01 41.99589 8.75744 2550 ft 187 kts 100°
2026-04-08 15:01 41.99373 8.77396 2269 ft 174 kts 101°
2026-04-08 15:01 41.99170 8.78933 1976 ft 161 kts 102°
2026-04-08 15:01 41.98967 8.80383 1680 ft 155 kts 105°
2026-04-08 15:02 41.98524 8.81625 1433 ft 141 kts 134°
2026-04-08 15:02 41.97766 8.82441 1233 ft 141 kts 159°
2026-04-08 15:02 41.96815 8.82708 991 ft 140 kts 185°
2026-04-08 15:02 41.95878 8.82415 745 ft 138 kts 201°
2026-04-08 15:03 41.95006 8.81902 530 ft 135 kts 208°
2026-04-08 15:03 41.94176 8.81357 327 ft 134 kts 208°
2026-04-08 15:03 41.93335 8.80839 124 ft 131 kts 206°
2026-04-08 15:03 41.92526 8.80331 27 ft 117 kts 206°
2026-04-08 15:04 41.92010 8.80006 27 ft 41 kts 205°
2026-04-08 15:04 41.91771 8.79857 23 ft 35 kts 205°
2026-04-08 15:04 41.91557 8.79727 21 ft 33 kts 204°
2026-04-08 15:04 41.91358 8.79601 22 ft 27 kts 206°
2026-04-08 15:05 41.91251 8.79488 23 ft 14 kts 239°
2026-04-08 15:05 41.91297 8.79395 23 ft 13 kts 332°
2026-04-08 15:05 41.91372 8.79349 23 ft 11 kts 336°
2026-04-08 15:05 41.91444 8.79332 22 ft 10 kts 358°
2026-04-08 15:06 41.91506 8.79357 24 ft 9 kts 29°
2026-04-08 15:06 41.91566 8.79398 21 ft 10 kts 24°
2026-04-08 15:06 41.91632 8.79440 20 ft 10 kts 27°
2026-04-08 15:06 41.91693 8.79478 23 ft 9 kts 23°
2026-04-08 15:07 41.91738 8.79505 22 ft 6 kts 25°
2026-04-08 15:07 41.91764 8.79521 25 ft 3 kts 20°
2026-04-08 15:07 41.91813 8.79551 25 ft 17 kts 25°
2026-04-08 15:07 41.91916 8.79614 24 ft 13 kts 21°
2026-04-08 15:08 41.91933 8.79600 25 ft 2 kts 294°
2026-04-08 15:08 41.91938 8.79593 28 ft 1 kts 313°
2026-04-08 15:08 41.91954 8.79580 25 ft 4 kts 334°
2026-04-08 15:08 41.91971 8.79572 25 ft 0 kts 341°